Location: Aalsum
(53.3404°N, 6.0062°E)
Time: 02:16:36
(UTC+00:00)

ATLAS CENTAUR R/B - Pass Details

Date: 28 January 2023
Orbit: 450 x 653 km, 64.7° (Epoch: 19 March)

Event Time Altitude Azimuth Distance (km) Brightness Sun altitude
Rises 17:35:05 0° 186° (S) 2,981 5.3 -12.4°
Reaches altitude 10° 17:37:41 10° 174° (S) 2,064 4.3 -12.8°
Maximum altitude 17:41:34 26° 119° (ESE) 1,269 2.7 -13.4°
Enters shadow 17:43:15 21° 86° (E) 1,440 2.8 -13.6°
